Volver al catálogo

KUIPER-00438

ActivoComunicacionesLEO
NORAD 68940·PAYLOAD·🇺🇸 United States

Lanzado Apr 30, 2026 desde Guiana Space Centre

Loading…

Próximos Pases (próximas 24 horas)

TLE

ActualizadoSource: CelesTrak SupGP

Época: Sep 14, 2026, 22:26 UTC

1 68940C 26098X   26257.93526620  .00004671  00000+0  61164-3 0  2572
2 68940  51.9037  18.8181 0000607  89.7066 260.3021 14.79914704    11

Sigue KUIPER-00438 en tiempo real con AllMySat

Download on the App Store